Location: Asheville, NC
(35.6000°N, 82.5500°W)
Time: 09:38:22
(UTC-04:00)

Vanguard 2 Rocket - Pass Details

Date: 12 December 2017
Orbit: 553 x 3327 km, 32.9° (Epoch: 16 July)

Event Time Altitude Azimuth Distance (km) Brightness Sun altitude
Exits shadow 04:57:26 15° 226° (SW) 4,988 10.3 -30.3°
Drops below altitude 10° 05:03:09 10° 203° (SSW) 4,940 10.5 -29.1°
Sets 05:08:50 0° 182° (S) 5,378 10.9 -28.0°
